Tracking 17149 objects as of 22-May-2015
HD Live streaming from Space Station

COSMOS 1776 DEB


COSMOS 1776 DEB is no longer on orbit
COSMOS 1776 DEB is classified as:


NORAD ID: 17357
Int'l Code: 1986-067P
Perigee: N/A
Apogee: N/A
Inclination: N/A
Period: N/A
Semi major axis: N/A
RCS: N/A
Launch date: September 3, 1986
Source: Commonwealth of Independent States (former USSR) (CIS)
Decay date: 1987-11-22

Note: This is SATELLITE DEBRIS
Your satellite tracking list
Your tracking list is empty





NASA's NSSDC Master Catalog

Two Line Element Set (TLE):
1 17357U 86067  P 87326.08663551  .33948266 +56000-5 +37516-2 0  9991
2 17357 073.9041 249.9446 0009929 229.5995 136.6801 16.36938081068157

Source of the keplerian elements: AFSPC

N2YO: 381